Orbital Elements
Epoch 2015 Aug. 6.0 TT = JDT 2457240.5
T 2015 Aug. 15.13708 TT MPCW
q 1.4310882 (2000.0) P Q
n 0.14910170 Peri. 343.56516 -0.47025220 +0.83675094
a 3.5222025 Node 257.62547 -0.77394253 -0.54376971
e 0.5936951 Incl. 16.69203 -0.42411770 +0.06451639
P 6.61
From 1097 observations 1951 May 28-2015 Sept. 6, mean residual 0".5.
Nongravitational parameters A1 = +0.15, A2 = -0.0271.
|